2023/02/27 00:00:00,78.8,-0.5
2023/02/27 00:10:00,78.9,-1.1
2023/02/27 00:20:00,79.0,-1.7
2023/02/27 00:30:00,78.9,-1.7
2023/02/27 00:40:00,78.9,-1.5
2023/02/27 00:50:00,78.9,-1.1
2023/02/27 01:00:00,78.9,-1.1
2023/02/27 01:10:00,78.9,-1.8
2023/02/27 01:20:00,78.9,-2.2
2023/02/27 01:30:00,78.9,-1.3
2023/02/27 01:40:00,78.9,-1.8
2023/02/27 01:50:00,78.9,-1.7
2023/02/27 02:00:00,78.8,-1.2
2023/02/27 02:10:00,78.8,-1.4
2023/02/27 02:20:00,78.8,-1.7
2023/02/27 02:30:00,78.9,-2.2
2023/02/27 02:40:00,78.9,-2.9
2023/02/27 02:50:00,78.9,-2.8
2023/02/27 03:00:00,79.0,-2.9
2023/02/27 03:10:00,79.1,-3.1
2023/02/27 03:20:00,79.1,-2.8
2023/02/27 03:30:00,79.1,-2.8
2023/02/27 03:40:00,79.1,-2.9
2023/02/27 03:50:00,79.1,-3.3
2023/02/27 04:00:00,79.0,-3.4
2023/02/27 04:10:00,79.0,-3.7
2023/02/27 04:20:00,79.0,-3.6
2023/02/27 04:30:00,79.0,-3.7
2023/02/27 04:40:00,79.0,-3.8
2023/02/27 04:50:00,79.0,-3.8
2023/02/27 05:00:00,79.0,-3.8
2023/02/27 05:10:00,79.0,-3.6
2023/02/27 05:20:00,79.0,-3.6
2023/02/27 05:30:00,79.0,-3.6
2023/02/27 05:40:00,79.0,-3.7
2023/02/27 05:50:00,79.0,-3.8
2023/02/27 06:00:00,79.0,-3.8
2023/02/27 06:10:00,79.0,-3.9
2023/02/27 06:20:00,79.0,-3.7
2023/02/27 06:30:00,79.0,-3.8
2023/02/27 06:40:00,79.0,-3.9
2023/02/27 06:50:00,79.0,-3.8
2023/02/27 07:00:00,79.0,-3.8
2023/02/27 07:10:00,79.0,-3.8
2023/02/27 07:20:00,79.0,-3.8
2023/02/27 07:30:00,79.0,-3.7
2023/02/27 07:40:00,78.9,-3.6
2023/02/27 07:50:00,79.0,-3.1
2023/02/27 08:00:00,78.9,-2.5
2023/02/27 08:10:00,78.8,-1.2
2023/02/27 08:20:00,78.7, 0.4
2023/02/27 08:30:00,78.8, 0.8
2023/02/27 08:40:00,78.7, 2.1
2023/02/27 08:50:00,78.9, 3.3
2023/02/27 09:00:00,78.8, 6.0
2023/02/27 09:10:00,78.7, 8.1
2023/02/27 09:20:00,78.7, 9.4
2023/02/27 09:30:00,78.7, 9.4
2023/02/27 09:40:00,78.7, 9.8
2023/02/27 09:50:00,78.7, 9.6
2023/02/27 10:00:00,78.7,10.9
2023/02/27 10:10:00,78.6, 8.5
2023/02/27 10:20:00,78.3, 7.0
2023/02/27 10:30:00,78.2, 7.2
2023/02/27 10:40:00,78.0, 7.9
2023/02/27 10:50:00,77.6, 7.8
2023/02/27 11:00:00,77.4, 9.7
2023/02/27 11:10:00,77.1,10.3
2023/02/27 11:20:00,76.8, 9.7
2023/02/27 11:30:00,76.7,10.6
2023/02/27 11:40:00,76.6, 9.2
2023/02/27 11:50:00,76.3, 9.9
2023/02/27 12:00:00,76.0,11.5
2023/02/27 12:10:00,75.8,10.3
2023/02/27 12:20:00,75.8,11.0
2023/02/27 12:30:00,75.7,12.4
2023/02/27 12:40:00,75.7,12.5
2023/02/27 12:50:00,75.5,16.0
2023/02/27 13:00:00,75.2,15.7
2023/02/27 13:10:00,75.4,12.9
2023/02/27 13:20:00,75.0,14.4
2023/02/27 13:30:00,74.4,17.3
2023/02/27 13:40:00,73.8,17.3
2023/02/27 13:50:00,73.0,18.4
2023/02/27 14:00:00,72.6,18.5
2023/02/27 14:10:00,72.5,19.1
2023/02/27 14:20:00,72.4,19.7
2023/02/27 14:30:00,71.8,19.9
2023/02/27 14:40:00,71.6,21.7
2023/02/27 14:50:00,71.0,21.4
2023/02/27 15:00:00,71.6,19.5
2023/02/27 15:10:00,71.4,18.2
2023/02/27 15:20:00,71.4,18.1
2023/02/27 15:30:00,71.4,19.0
2023/02/27 15:40:00,71.5,20.2
2023/02/27 15:50:00,71.6,17.9
2023/02/27 16:00:00,72.1,22.9
2023/02/27 16:10:00,72.6,26.5
2023/02/27 16:20:00,72.8,26.4
2023/02/27 16:30:00,72.6,25.4
2023/02/27 16:40:00,72.5,25.3
2023/02/27 16:50:00,72.4,23.8
2023/02/27 17:00:00,72.3,20.4
2023/02/27 17:10:00,71.9,12.3
2023/02/27 17:20:00,72.3, 8.4
2023/02/27 17:30:00,72.6, 6.1
2023/02/27 17:40:00,72.9, 4.6
2023/02/27 17:50:00,73.1, 3.4
2023/02/27 18:00:00,73.2, 2.9
2023/02/27 18:10:00,73.2, 2.4
2023/02/27 18:20:00,73.4, 1.6
2023/02/27 18:30:00,73.4, 1.2
2023/02/27 18:40:00,73.4, 1.0
2023/02/27 18:50:00,73.4, 0.5
2023/02/27 19:00:00,73.4, 0.2
2023/02/27 19:10:00,73.5, 0.1
2023/02/27 19:20:00,73.5,-0.1
2023/02/27 19:30:00,73.6,-0.1
2023/02/27 19:40:00,73.5,-0.3
2023/02/27 19:50:00,73.4,-0.3
2023/02/27 20:00:00,73.4,-0.9
2023/02/27 20:10:00,73.4,-0.1
2023/02/27 20:20:00,73.4,-0.7
2023/02/27 20:30:00,73.4,-1.0
2023/02/27 20:40:00,73.4,-1.0
2023/02/27 20:50:00,73.4,-0.9
2023/02/27 21:00:00,73.4,-1.1
2023/02/27 21:10:00,73.4,-1.4
2023/02/27 21:20:00,73.3,-1.4
2023/02/27 21:30:00,73.3,-1.3
2023/02/27 21:40:00,73.3,-1.2
2023/02/27 21:50:00,73.3,-1.8
2023/02/27 22:00:00,73.3,-1.7
2023/02/27 22:10:00,73.3,-1.8
2023/02/27 22:20:00,73.3,-1.9
2023/02/27 22:30:00,73.3,-2.0
2023/02/27 22:40:00,73.2,-2.2
2023/02/27 22:50:00,73.2,-2.3
2023/02/27 23:00:00,73.2,-2.6
2023/02/27 23:10:00,73.2,-2.3
2023/02/27 23:20:00,73.2,-2.3
2023/02/27 23:30:00,73.2,-2.5
2023/02/27 23:40:00,73.2,-2.5
2023/02/27 23:50:00,73.3,-2.6
